Time,TemperatureF,DewpointF,PressureIn,WindDirection,WindDirectionDegrees,WindSpeedMPH,WindSpeedGustMPH,Humidity,HourlyPrecipIn,Conditions,Clouds,dailyrainin,SoftwareType,DateUTC
2013-12-23 00:10:00,37.5,35.0,30.25,South,169,0.0,0.0,92,0.00,,,0.00,weatherlink.com 1.10,2013-12-23 08:10:00,
2013-12-23 00:25:00,37.3,35.0,30.24,South,169,0.0,0.0,92,0.00,,,0.00,weatherlink.com 1.10,2013-12-23 08:25:00,
2013-12-23 00:40:00,37.2,35.0,30.24,South,169,0.0,0.0,93,0.00,,,0.00,weatherlink.com 1.10,2013-12-23 08:40:00,
2013-12-23 00:55:00,36.7,35.0,30.25,South,169,0.0,0.0,92,0.00,,,0.00,weatherlink.com 1.10,2013-12-23 08:55:00,
2013-12-23 01:10:00,36.6,35.0,30.25,South,169,0.0,0.0,93,0.00,,,0.00,weatherlink.com 1.10,2013-12-23 09:10:00,
2013-12-23 01:25:00,36.3,35.0,30.26,South,169,0.0,0.0,93,0.00,,,0.00,weatherlink.com 1.10,2013-12-23 09:25:00,
2013-12-23 01:40:00,36.5,35.0,30.26,South,169,0.0,0.0,94,0.00,,,0.00,weatherlink.com 1.10,2013-12-23 09:40:00,
2013-12-23 01:55:00,36.3,35.0,30.27,South,169,0.0,0.0,93,0.00,,,0.00,weatherlink.com 1.10,2013-12-23 09:55:00,
2013-12-23 02:10:00,35.8,34.0,30.27,South,169,0.0,0.0,93,0.00,,,0.00,weatherlink.com 1.10,2013-12-23 10:10:00,
2013-12-23 02:25:00,35.6,34.0,30.28,South,169,0.0,0.0,93,0.00,,,0.00,weatherlink.com 1.10,2013-12-23 10:25:00,
2013-12-23 02:40:00,35.3,34.0,30.28,South,169,0.0,0.0,94,0.00,,,0.00,weatherlink.com 1.10,2013-12-23 10:40:00,
2013-12-23 02:55:00,35.2,34.0,30.28,South,169,0.0,0.0,94,0.00,,,0.00,weatherlink.com 1.10,2013-12-23 10:55:00,
2013-12-23 03:10:00,35.1,34.0,30.28,South,169,0.0,0.0,94,0.00,,,0.00,weatherlink.com 1.10,2013-12-23 11:10:00,
2013-12-23 03:25:00,35.1,34.0,30.28,South,169,0.0,0.0,94,0.00,,,0.00,weatherlink.com 1.10,2013-12-23 11:25:00,
2013-12-23 03:40:00,34.8,33.0,30.28,South,169,0.0,0.0,94,0.00,,,0.00,weatherlink.com 1.10,2013-12-23 11:40:00,
2013-12-23 03:55:00,35.0,34.0,30.28,South,169,0.0,0.0,95,0.00,,,0.00,weatherlink.com 1.10,2013-12-23 11:55:00,
2013-12-23 04:10:00,34.5,33.0,30.28,South,169,0.0,0.0,94,0.00,,,0.00,weatherlink.com 1.10,2013-12-23 12:10:00,
2013-12-23 04:25:00,34.5,33.0,30.28,South,169,0.0,0.0,95,0.00,,,0.00,weatherlink.com 1.10,2013-12-23 12:25:00,
2013-12-23 04:40:00,34.9,34.0,30.28,South,169,0.0,0.0,95,0.00,,,0.00,weatherlink.com 1.10,2013-12-23 12:40:00,
2013-12-23 04:55:00,34.8,34.0,30.29,South,169,0.0,0.0,95,0.00,,,0.00,weatherlink.com 1.10,2013-12-23 12:55:00,
2013-12-23 05:10:00,34.8,34.0,30.29,South,169,0.0,0.0,95,0.00,,,0.00,weatherlink.com 1.10,2013-12-23 13:10:00,
2013-12-23 05:25:00,34.7,34.0,30.29,South,169,0.0,0.0,95,0.00,,,0.00,weatherlink.com 1.10,2013-12-23 13:25:00,
2013-12-23 05:40:00,34.6,33.0,30.30,South,169,0.0,0.0,95,0.00,,,0.00,weatherlink.com 1.10,2013-12-23 13:40:00,
2013-12-23 05:55:00,34.4,33.0,30.30,South,169,0.0,0.0,95,0.00,,,0.00,weatherlink.com 1.10,2013-12-23 13:55:00,
2013-12-23 06:10:00,35.1,34.0,30.30,South,169,0.0,0.0,96,0.00,,,0.00,weatherlink.com 1.10,2013-12-23 14:10:00,
2013-12-23 06:25:00,34.6,34.0,30.31,South,169,0.0,0.0,96,0.00,,,0.00,weatherlink.com 1.10,2013-12-23 14:25:00,
2013-12-23 06:40:00,34.0,33.0,30.31,South,169,0.0,0.0,95,0.00,,,0.00,weatherlink.com 1.10,2013-12-23 14:40:00,
2013-12-23 06:55:00,35.1,34.0,30.32,WSW,258,1.0,1.0,96,0.00,,,0.00,weatherlink.com 1.10,2013-12-23 14:55:00,
2013-12-23 07:10:00,34.7,34.0,30.32,WSW,258,0.0,0.0,96,0.00,,,0.00,weatherlink.com 1.10,2013-12-23 15:10:00,
2013-12-23 07:25:00,34.5,33.0,30.32,WSW,258,0.0,0.0,95,0.01,,,0.01,weatherlink.com 1.10,2013-12-23 15:25:00,
2013-12-23 07:40:00,34.6,34.0,30.32,WSW,258,0.0,1.0,96,0.01,,,0.01,weatherlink.com 1.10,2013-12-23 15:40:00,
2013-12-23 07:55:00,35.1,34.0,30.33,WSW,258,0.0,0.0,96,0.01,,,0.01,weatherlink.com 1.10,2013-12-23 15:55:00,
2013-12-23 08:11:00,36.0,35.0,30.33,WSW,258,0.0,0.0,96,0.01,,,0.01,weatherlink.com 1.10,2013-12-23 16:11:00,
2013-12-23 08:26:00,37.1,36.0,30.34,WSW,258,0.0,0.0,96,0.00,,,0.01,weatherlink.com 1.10,2013-12-23 16:26:00,
2013-12-23 08:41:00,40.8,40.0,30.34,WSW,258,0.0,0.0,97,0.00,,,0.01,weatherlink.com 1.10,2013-12-23 16:41:00,
2013-12-23 08:56:00,43.9,43.0,30.34,WSW,258,0.0,1.0,97,0.00,,,0.01,weatherlink.com 1.10,2013-12-23 16:56:00,
2013-12-23 09:11:00,46.4,43.0,30.34,WSW,253,0.0,1.0,86,0.00,,,0.01,weatherlink.com 1.10,2013-12-23 17:11:00,
2013-12-23 09:26:00,49.1,43.0,30.35,WSW,253,1.0,1.0,78,0.00,,,0.01,weatherlink.com 1.10,2013-12-23 17:26:00,
2013-12-23 09:41:00,51.8,42.0,30.35,SE,131,0.0,1.0,69,0.00,,,0.01,weatherlink.com 1.10,2013-12-23 17:41:00,
2013-12-23 09:56:00,54.6,42.0,30.35,SE,131,0.0,1.0,62,0.00,,,0.01,weatherlink.com 1.10,2013-12-23 17:56:00,
2013-12-23 10:26:00,57.1,40.0,30.36,SE,134,0.0,2.0,53,0.00,,,0.01,weatherlink.com 1.10,2013-12-23 18:26:00,
2013-12-23 10:41:00,58.5,41.0,30.36,SE,124,0.0,1.0,52,0.00,,,0.01,weatherlink.com 1.10,2013-12-23 18:41:00,
2013-12-23 10:56:00,59.0,40.0,30.36,SSE,166,0.0,2.0,50,0.00,,,0.01,weatherlink.com 1.10,2013-12-23 18:56:00,
2013-12-23 11:11:00,60.3,41.0,30.35,SSE,148,0.0,1.0,49,0.00,,,0.01,weatherlink.com 1.10,2013-12-23 19:11:00,
2013-12-23 11:26:00,61.2,41.0,30.35,ESE,117,0.0,1.0,48,0.00,,,0.01,weatherlink.com 1.10,2013-12-23 19:26:00,
2013-12-23 11:41:00,62.1,41.0,30.35,SW,229,0.0,2.0,46,0.00,,,0.01,weatherlink.com 1.10,2013-12-23 19:41:00,
2013-12-23 11:56:00,62.7,41.0,30.34,ESE,119,0.0,1.0,45,0.00,,,0.01,weatherlink.com 1.10,2013-12-23 19:56:00,
2013-12-23 12:11:00,63.4,41.0,30.34,SW,220,0.0,2.0,44,0.00,,,0.01,weatherlink.com 1.10,2013-12-23 20:11:00,
2013-12-23 12:26:00,64.1,41.0,30.33,SE,143,1.0,2.0,43,0.00,,,0.01,weatherlink.com 1.10,2013-12-23 20:26:00,
2013-12-23 12:42:00,64.5,41.0,30.32,SSE,167,0.0,2.0,42,0.00,,,0.01,weatherlink.com 1.10,2013-12-23 20:42:00,
2013-12-23 12:57:00,64.3,41.0,30.32,NE,41,1.0,3.0,42,0.00,,,0.01,weatherlink.com 1.10,2013-12-23 20:57:00,
2013-12-23 13:12:00,64.7,40.0,30.31,ESE,120,0.0,2.0,41,0.00,,,0.01,weatherlink.com 1.10,2013-12-23 21:12:00,
2013-12-23 13:27:00,64.9,40.0,30.31,ENE,78,0.0,1.0,41,0.00,,,0.01,weatherlink.com 1.10,2013-12-23 21:27:00,
2013-12-23 13:42:00,64.9,40.0,30.30,SSW,193,1.0,3.0,41,0.00,,,0.01,weatherlink.com 1.10,2013-12-23 21:42:00,
2013-12-23 13:57:00,64.9,41.0,30.30,SW,214,3.0,3.0,42,0.00,,,0.01,weatherlink.com 1.10,2013-12-23 21:57:00,
2013-12-23 14:12:00,64.1,40.0,30.29,SSE,167,1.0,4.0,42,0.00,,,0.01,weatherlink.com 1.10,2013-12-23 22:12:00,
2013-12-23 14:27:00,63.6,41.0,30.29,SW,214,1.0,3.0,43,0.00,,,0.01,weatherlink.com 1.10,2013-12-23 22:27:00,
2013-12-23 14:42:00,63.4,41.0,30.29,SSE,158,1.0,2.0,44,0.00,,,0.01,weatherlink.com 1.10,2013-12-23 22:42:00,
2013-12-23 14:57:00,63.8,41.0,30.29,South,188,0.0,3.0,44,0.00,,,0.01,weatherlink.com 1.10,2013-12-23 22:57:00,
2013-12-23 15:12:00,62.2,40.0,30.29,SW,229,0.0,1.0,45,0.00,,,0.01,weatherlink.com 1.10,2013-12-23 23:12:00,
2013-12-23 15:27:00,59.7,40.0,30.29,SSW,193,0.0,1.0,49,0.00,,,0.01,weatherlink.com 1.10,2013-12-23 23:27:00,
2013-12-23 15:42:00,57.8,40.0,30.29,SSW,192,0.0,0.0,52,0.00,,,0.01,weatherlink.com 1.10,2013-12-23 23:42:00,
2013-12-23 15:57:00,56.0,40.0,30.29,SSW,193,0.0,0.0,56,0.00,,,0.01,weatherlink.com 1.10,2013-12-23 23:57:00,
2013-12-23 16:12:00,54.2,40.0,30.29,SSW,193,0.0,0.0,60,0.00,,,0.01,weatherlink.com 1.10,2013-12-24 00:12:00,
2013-12-23 16:27:00,53.0,41.0,30.30,SSW,193,0.0,0.0,63,0.00,,,0.01,weatherlink.com 1.10,2013-12-24 00:27:00,
2013-12-23 16:42:00,51.2,40.0,30.30,SSW,192,0.0,0.0,66,0.00,,,0.01,weatherlink.com 1.10,2013-12-24 00:42:00,
2013-12-23 16:57:00,49.6,40.0,30.30,SSW,192,0.0,0.0,70,0.00,,,0.01,weatherlink.com 1.10,2013-12-24 00:57:00,
2013-12-23 17:12:00,48.5,40.0,30.30,SSW,193,0.0,0.0,72,0.00,,,0.01,weatherlink.com 1.10,2013-12-24 01:12:00,
2013-12-23 17:27:00,47.2,39.0,30.30,SSW,193,0.0,0.0,74,0.00,,,0.01,weatherlink.com 1.10,2013-12-24 01:27:00,
2013-12-23 17:42:00,46.1,39.0,30.30,SSW,193,0.0,0.0,77,0.00,,,0.01,weatherlink.com 1.10,2013-12-24 01:42:00,
2013-12-23 17:57:00,45.3,39.0,30.30,SSW,192,0.0,0.0,78,0.00,,,0.01,weatherlink.com 1.10,2013-12-24 01:57:00,
2013-12-23 18:12:00,44.5,39.0,30.30,SSW,193,0.0,0.0,80,0.00,,,0.01,weatherlink.com 1.10,2013-12-24 02:12:00,
2013-12-23 18:27:00,44.3,39.0,30.30,SSW,193,0.0,0.0,81,0.00,,,0.01,weatherlink.com 1.10,2013-12-24 02:27:00,
2013-12-23 18:42:00,43.9,39.0,30.30,SSW,193,0.0,0.0,82,0.00,,,0.01,weatherlink.com 1.10,2013-12-24 02:42:00,
2013-12-23 18:57:00,43.3,39.0,30.30,SSW,193,0.0,0.0,83,0.00,,,0.01,weatherlink.com 1.10,2013-12-24 02:57:00,
2013-12-23 19:12:00,43.0,39.0,30.30,SSW,193,0.0,0.0,84,0.00,,,0.01,weatherlink.com 1.10,2013-12-24 03:12:00,
2013-12-23 19:27:00,42.5,38.0,30.30,SSW,193,0.0,0.0,85,0.00,,,0.01,weatherlink.com 1.10,2013-12-24 03:27:00,
2013-12-23 19:42:00,42.2,38.0,30.30,SSW,192,0.0,0.0,85,0.00,,,0.01,weatherlink.com 1.10,2013-12-24 03:42:00,
2013-12-23 19:57:00,41.7,38.0,30.30,SSW,193,0.0,0.0,86,0.00,,,0.01,weatherlink.com 1.10,2013-12-24 03:57:00,
2013-12-23 20:12:00,41.7,38.0,30.30,SSW,193,0.0,0.0,86,0.00,,,0.01,weatherlink.com 1.10,2013-12-24 04:12:00,
2013-12-23 20:27:00,41.2,38.0,30.30,SSW,193,0.0,0.0,87,0.00,,,0.01,weatherlink.com 1.10,2013-12-24 04:27:00,
2013-12-23 20:42:00,40.9,37.0,30.30,SSW,193,0.0,0.0,87,0.00,,,0.01,weatherlink.com 1.10,2013-12-24 04:42:00,
2013-12-23 20:57:00,40.3,37.0,30.30,SSW,192,0.0,0.0,88,0.00,,,0.01,weatherlink.com 1.10,2013-12-24 04:57:00,
2013-12-23 21:12:00,40.4,38.0,30.30,SSW,193,0.0,0.0,89,0.00,,,0.01,weatherlink.com 1.10,2013-12-24 05:12:00,
2013-12-23 21:27:00,40.4,38.0,30.30,SSW,193,0.0,0.0,90,0.00,,,0.01,weatherlink.com 1.10,2013-12-24 05:27:00,
2013-12-23 21:42:00,40.4,38.0,30.30,SSW,193,0.0,0.0,89,0.00,,,0.01,weatherlink.com 1.10,2013-12-24 05:42:00,
2013-12-23 21:57:00,40.4,38.0,30.30,SSW,192,0.0,0.0,89,0.00,,,0.01,weatherlink.com 1.10,2013-12-24 05:57:00,
2013-12-23 22:12:00,39.9,37.0,30.30,SSW,193,0.0,0.0,89,0.00,,,0.01,weatherlink.com 1.10,2013-12-24 06:12:00,
2013-12-23 22:27:00,39.8,37.0,30.31,SSW,193,0.0,0.0,90,0.00,,,0.01,weatherlink.com 1.10,2013-12-24 06:27:00,
2013-12-23 22:42:00,39.3,37.0,30.31,SSW,192,0.0,0.0,90,0.00,,,0.01,weatherlink.com 1.10,2013-12-24 06:42:00,
2013-12-23 22:57:00,39.7,37.0,30.31,SSW,192,0.0,0.0,91,0.00,,,0.01,weatherlink.com 1.10,2013-12-24 06:57:00,
2013-12-23 23:12:00,39.3,37.0,30.31,SSW,192,0.0,0.0,91,0.00,,,0.01,weatherlink.com 1.10,2013-12-24 07:12:00,
2013-12-23 23:27:00,38.9,37.0,30.31,SSW,192,0.0,0.0,91,0.00,,,0.01,weatherlink.com 1.10,2013-12-24 07:27:00,
2013-12-23 23:42:00,38.5,36.0,30.30,SSW,192,0.0,0.0,92,0.00,,,0.01,weatherlink.com 1.10,2013-12-24 07:42:00,
2013-12-23 23:57:00,39.0,37.0,30.30,SSW,192,0.0,0.0,92,0.00,,,0.01,weatherlink.com 1.10,2013-12-24 07:57:00,